Probability
0 0 0 0 0 0 0 0 0 0 0 0 0 0 0 0 0 0 0 0 0 0 0 0 0 0 0 0 0 0 0 0 0 0 0 0 0 0 0 0 0 0 0 0
0 0 0 0 0 0 0 0 0 0 0 0 0 0 0 0 0 0 0 0 0 0 0 0 0 0 0 0 0 0 0 0 0 0 0 0 0 0 0 0 0 0 0 0
0 0 0 0 0 0 0 0 0 0 0 0 0 0 0 0 0 0 0 0 0 0 0 0 0 0 0 0 0 0 0 0 0 0 0 0 0 0 0 0 0 0 0 0
0 0 0 0 0 0 0 0 0 0 0 0 0 0 0 0 0 0 0 0 0 0 0 0 0 0 0 0 0 0 0 0 0 0 0 0 0 0 0 0 0 0 0 0
0 0 0 0 0 0 0 0 0 0 0 0 0 0 0 0 0 0 0 0 0 0 0 0 0 0 0 0 0 0 0 0 0 0 0 0 0 0 0 0 0 0 0 0
0 0 0 0 0 0 0 0 0 0 0 0 0 0 0 0 0 0 0 0 0 0 0 0 0 0 0 0 0 0 0 0 0 0 0 0 0 0 0 0 0 0 0 0
0 0 0 0 0 0 0 0 0 0 0 0 0 0 0 0 0 0 0 0 0 0 0 0 0 0 0 0 0 0 0 0 0 0 0 0 0 0 0 0 0 0 0 0
0 0 0 0 0 0 0 0 0 0 0 0 0 0 0 0 0 0 0 0 0 0 0 0 0 0 0 0 0 0 0 0 0 0 0 0 0 0 0 0 0 0 0 0
0 0 0 0 0 0 0 0 0 0 0 0 0 0 0 0 0 0 0 0 0 0 0 0 0 0 0 0 0 0 0 0 0 0 0 0 0 0 0 0 0 0 0 0
0 0 0 0 0 0 0 0 0 0 0 0 0 0 0 0 0 0 0 0 0 0 0 0 0 0 0 0 0 0 0 0 0 0 0 0 0 0 0 0 0 0 0 0
0 0 0 0 0 0 0 0 0 0 0 0 0 0 0 0 0 0 0 0 0 0 0 0 0 0 0 0 0 0 0 0 0 0 0 0 0 0 0 0 0 0 0 0
0 0 0 0 0 0 0 0 0 0 0 0 0 0 0 0 0 0 0 0 0 0 0 0 0 0 0 0 0 0 0 0 0 0 0 0 0 0 0 0 0 0 0 0
0 0 0 0 0 0 0 0 0 0 0 0 0 0 0 0 0 0 0 0 0 0 0 0 0 0 0 0 0 0 0 0 0 0 0 0 0 0 0 0 0 0 0 0
0 0 0 0 0 0 0 0 0 0 0 0 0 0 0 0 0 0 0 0 0 0 0 0 0 0 0 0 0 0 0 0 0 0 0 0 0 0 0 0 0 0 0 0
0 0 0 0 0 0 0 0 0 0 0 0 0 0 0 0 0 0 0 0 0 0 0 0 0 0 0 0 0 0 0 0 0 0 0 0 0 0 0 0 0 0 0 0
0 0 0 0 0 0 0 0 0 0 0 0 0 0 0 0 0 0 0 0 0 0 0 0 0 0 0 0 0 0 0 0 0 0 0 0 0 0 0 0 0 0 0 0
0 0 0 0 0 0 0 0 0 0 0 0 0 0 0 0 0 0 0 0 0 0 0 0 0 0 0 0 0 0 0 0 0 0 0 0 0 0 0 0 0 0 0 0
0 0 0 0 0 0 0 0 0 0 0 0 0 0 0 0 0 0 0 0 0 0 0 0 0 0 0 0 0 0 0 0 0 0 0 0 0 0 0 0 0 0 0 0
0 0 0 0 0 0 0 0 0 0 0 0 0 0 0 0 0 0 0 0 0 0 0 0 0 0 0 0 0 0 0 0 0 0 0 0 0 0 0 0 0 0 0 0
0 0 0 0 0 0 0 0 0 0 0 0 0 0 0 0 0 0 0 0 0 0 0 0 0 0 0 0 0 0 0 0 0 0 0 0 0 0 0 0 0 0 0 0
0 0 0 0 0 0 0 0 0 0 0 0 0 0 0 0 0 0 0 0 0 0 0 0 0 0 0 0 0 0 0 0 0 0 0 0 0 0 0 0 0 0 0 0
0 0 0 0 0 0 0 0 0 0 0 0 0 0 0 0 0 0 0 0 0 0 0 0 0 0 0 0 0 0 0 0 0 0 0 0 0 0 0 0 0 0 0 0
0 0 0 0 0 0 0 0 0 0 0 0 0 0 0 0 0 0 0 0 0 0 0 0 0 0 0 0 0 0 0 0 0 0 0 0 0 0 0 0 0 0 0 0
0 0 0 0 0 0 0 0 0 0 0 0 0 0 0 0 0 0 0 0 0 0 0 0 0 0 0 0 0 0 0 0 0 0 0 0 0 0 0 0 0 0 0 0
0 0 0 0 0 0 0 0 0 0 0 0 0 0 0 0 0 0 0 0 0 0 0 0 0 0 0 0 0 0 0 0 0 0 0 0 0 0 0 0 0 0 0 0
0 0 0 0 0 0 0 0 0 0 0 0 0 0 0 0 0 0 0 0 0 0 0 0 0 0 0 0 0 0 0 0 0 0 0 0 0 0 0 0 0 0 0 0
0 0 0 0 0 0 0 0 0 0 0 0 0 0 0 0 0 0 0 0 0 0 0 0 0 0 0 0 0 0 0 0 0 0 0 0 0 0 0 0 0 0 0 0
Wind_Speed
8 7 11 11 15 16 16 15 14 14 14 12 10 10 10 9 8 7 7 8 9 9 8 8 8 8 8 8 8 9 9 9 9 8 8 8 9 9 9 9 10 9 8 7
9 9 10 11 16 20 21 18 15 11 14 10 8 6 6 7 8 9 10 10 10 9 9 9 10 9 9 9 9 9 10 9 8 8 8 9 9 9 9 8 8 8 8 8
9 7 5 15 21 23 20 19 19 21 20 7 8 11 12 11 11 12 12 11 11 11 11 11 11 11 11 10 8 9 9 8 9 9 9 9 9 9 9 9 7 7 7 7
5 6 14 13 11 14 17 17 18 17 13 12 13 11 10 11 13 12 11 10 10 10 10 9 8 8 8 8 9 9 9 8 8 9 9 8 9 9 8 6 7 7 7 7
6 9 10 8 8 15 16 18 17 19 15 10 8 5 8 10 11 13 12 11 10 10 9 8 9 9 9 9 9 9 9 9 9 10 9 9 9 8 6 6 6 5 6 6
6 8 13 11 8 9 9 14 13 16 16 11 10 10 13 9 9 9 8 7 8 7 7 8 8 10 11 10 10 10 10 9 9 9 10 10 9 7 5 5 5 5 5 5
9 8 10 8 6 11 13 15 10 15 15 14 16 16 9 8 9 9 8 8 7 8 7 8 9 11 11 10 10 9 8 8 8 8 8 8 7 5 6 5 5 4 4 3
9 9 12 4 9 13 10 4 5 10 13 14 15 11 8 10 10 10 8 7 8 8 6 6 9 11 10 9 7 8 9 8 8 7 7 7 7 6 6 6 5 4 3 2
10 10 5 5 8 8 4 5 5 6 8 10 10 10 9 9 10 10 10 9 8 9 8 6 7 10 11 8 9 10 9 8 8 7 6 7 7 7 5 5 4 4 3 3
5 8 9 8 6 5 4 5 5 5 6 8 9 9 9 10 9 9 8 8 8 10 10 7 6 7 8 9 10 11 10 8 8 8 6 5 5 5 5 5 4 4 3 3
8 8 6 8 7 5 4 3 2 2 4 7 9 8 9 10 10 10 8 7 8 10 10 9 8 8 8 9 11 10 9 8 7 6 6 5 4 4 5 4 5 5 4 4
10 8 7 10 9 6 5 6 5 4 3 4 8 10 9 9 9 9 10 9 9 9 10 9 9 8 8 8 10 11 9 7 6 5 5 5 4 3 2 3 4 4 4 3
10 9 9 9 9 8 8 7 5 5 6 6 5 8 10 8 8 9 10 11 11 11 10 10 10 9 7 8 9 10 9 8 6 5 5 5 4 4 2 1 2 1 1 2
9 7 8 9 9 8 6 5 3 3 4 6 7 8 9 8 9 11 11 10 10 10 10 10 10 8 7 8 9 9 8 8 7 5 5 5 4 4 3 3 1 1 1 3
10 8 9 8 6 5 4 5 6 5 5 5 6 9 10 11 11 10 9 10 11 10 9 10 10 8 7 8 9 9 7 6 5 5 4 4 4 3 3 3 2 1 1 2
6 5 5 6 7 6 6 7 7 7 7 7 7 8 8 9 9 10 10 12 13 12 10 10 9 7 8 9 9 7 6 9 8 5 5 4 3 3 3 2 2 2 2 2
6 6 6 6 7 7 7 7 9 9 8 8 9 9 11 11 11 10 8 7 8 8 8 9 9 8 8 9 8 6 6 6 9 6 4 4 3 3 3 2 2 3 3 4
10 10 10 9 9 8 7 6 7 8 8 8 10 11 12 13 13 11 10 10 10 8 6 7 8 8 8 8 7 6 5 5 4 4 3 3 3 3 3 3 3 3 3 4
8 8 7 8 8 8 8 8 8 8 9 11 12 11 10 10 11 11 11 12 12 9 5 7 13 10 8 8 8 6 6 5 4 3 3 3 3 2 2 2 3 3 3 3
6 5 5 5 5 6 8 8 8 9 9 11 12 11 11 10 11 12 11 8 5 5 8 9 9 8 7 8 9 5 5 5 4 3 3 2 2 2 2 2 3 3 3 4
5 5 5 7 6 6 8 10 11 11 10 11 12 13 12 11 10 10 11 8 5 7 9 12 8 6 6 7 8 5 5 4 4 3 3 2 2 2 2 3 3 3 4 4
4 6 7 8 9 8 6 8 10 11 11 11 12 12 13 12 11 9 7 6 8 11 8 6 6 7 8 9 5 5 4 4 3 2 2 2 2 2 3 3 3 4 4 4
4 6 8 9 10 10 10 9 10 11 12 12 13 13 12 10 8 9 8 5 7 11 8 6 9 12 11 6 4 4 4 3 2 2 2 2 2 3 3 4 4 4 4 5
7 8 9 10 12 13 12 10 10 10 12 11 10 10 11 10 8 6 7 12 13 12 7 9 12 11 9 5 4 3 3 2 2 1 2 2 2 3 3 4 4 4 5 6
9 10 11 12 12 10 12 13 14 13 13 11 11 10 8 6 8 8 8 9 13 12 7 9 11 9 6 4 3 3 2 2 2 2 2 2 3 3 4 4 4 5 5 6
9 9 8 9 8 9 9 10 10 9 10 11 9 8 8 8 10 9 8 9 10 10 7 5 5 5 3 3 2 2 1 1 1 1 2 3 3 4 4 5 6 6 6 6
10 9 9 10 9 8 8 9 10 9 9 10 10 8 8 8 8 8 8 7 7 6 5 4 3 3 2 2 1 1 1 1 2 2 3 3 4 4 5 6 6 6 6 7
Wind_Direction
245 237 201 216 210 203 207 207 209 219 218 221 215 210 209 202 194 187 193 196 196 196 195 190 187 187 185 183 179 174 174 179 183 174 167 163 165 167 166 168 172 172 173 176
250 238 218 223 218 213 217 214 218 225 234 221 218 206 213 206 194 196 203 203 201 197 192 192 190 187 183 182 178 172 176 180 170 163 163 164 165 163 163 166 166 167 175 179
231 227 233 231 213 209 214 216 211 222 229 193 198 206 209 207 203 204 205 203 199 198 197 196 193 185 183 178 168 169 172 169 166 164 165 165 162 161 167 169 167 172 178 181
211 201 223 234 206 203 215 223 216 223 222 195 206 211 214 204 201 208 205 200 200 198 197 194 184 176 168 159 163 167 168 168 166 164 163 160 161 167 169 165 170 176 181 186
195 211 248 266 211 189 198 229 218 221 225 206 197 203 240 220 203 206 203 197 196 195 190 179 172 166 155 158 161 166 171 172 170 165 162 162 168 170 165 163 171 176 179 181
195 206 227 229 210 179 175 240 220 213 220 201 168 210 234 213 199 203 198 187 182 175 161 162 166 155 156 163 167 178 177 170 164 163 164 169 171 164 158 162 170 169 175 182
203 219 248 239 185 145 184 229 213 204 211 195 198 218 215 180 188 189 184 178 164 155 161 168 158 153 160 165 180 176 155 149 153 159 162 160 155 151 150 149 149 159 169 181
196 213 238 219 155 183 211 212 196 200 205 203 212 214 186 179 179 172 166 162 154 150 155 151 151 151 157 171 165 141 139 143 147 148 147 144 143 144 146 147 150 160 167 188
205 222 249 206 209 226 198 200 206 202 206 194 200 199 185 179 171 167 164 158 151 147 142 140 150 153 157 159 141 136 135 140 140 138 136 141 146 147 145 148 154 167 175 196
236 246 257 264 264 262 237 217 215 202 189 180 184 184 177 169 163 158 155 152 147 142 142 146 148 145 146 140 138 135 137 138 137 136 134 134 138 147 152 160 163 171 184 202
243 259 260 259 254 255 278 256 192 185 179 178 168 169 169 162 161 157 150 147 148 149 150 149 140 135 135 138 135 132 133 134 134 135 139 137 137 153 161 175 176 177 190 192
230 225 224 245 253 253 246 236 201 171 158 168 166 162 157 157 155 151 147 144 142 141 142 140 137 135 136 138 137 136 136 138 138 137 134 134 130 104 104 138 175 184 189 195
239 240 243 251 251 246 234 228 212 187 168 163 160 154 148 146 148 144 145 148 150 148 144 139 136 136 140 138 137 139 142 143 139 138 139 141 142 143 136 67 83 113 194 240
240 237 250 245 240 237 223 206 177 152 147 145 142 138 136 135 142 148 153 151 140 135 135 136 135 139 139 134 131 132 134 138 139 142 143 146 149 151 152 158 176 281 288 282
240 233 233 233 222 216 185 151 142 145 134 127 134 142 145 148 154 151 140 133 129 130 134 136 137 139 134 131 131 133 133 135 134 134 136 139 141 143 151 165 186 226 285 294
250 256 229 208 197 185 169 161 159 165 155 148 147 147 145 140 135 131 135 140 142 146 147 142 142 141 135 130 128 127 131 139 137 136 135 137 142 151 162 175 195 219 240 255
220 233 227 209 192 187 188 183 173 167 159 154 152 141 131 126 124 129 131 130 128 131 136 138 138 133 132 132 131 131 130 137 135 131 140 149 156 167 175 184 207 229 245 261
226 225 220 205 194 185 180 167 159 155 154 152 142 139 141 144 146 144 135 122 112 105 110 124 128 127 126 128 127 128 130 132 136 142 146 154 163 171 179 197 219 238 257 272
233 227 220 202 188 175 167 160 156 149 142 141 142 144 143 140 136 134 130 129 132 132 135 133 133 125 125 132 128 125 129 132 133 138 147 163 159 171 191 211 231 245 255 262
220 210 194 174 157 154 153 147 140 137 140 138 134 130 128 130 131 129 125 120 124 131 134 131 124 122 124 131 126 125 133 139 144 149 154 164 176 196 212 229 240 249 255 258
191 169 154 144 133 133 141 142 140 139 137 137 138 137 133 127 126 126 125 117 109 120 126 126 121 123 125 131 127 128 135 141 148 157 166 175 189 209 229 242 251 259 262 264
158 144 140 133 125 118 117 123 128 128 127 124 121 123 123 122 117 105 95 117 131 128 120 117 120 131 136 128 122 128 134 141 148 157 170 184 200 223 241 250 256 263 266 264
129 128 127 125 122 115 102 104 114 120 123 125 127 130 128 125 126 126 119 120 124 123 117 121 133 133 126 116 119 124 131 140 151 168 186 202 216 230 244 255 259 263 265 266
113 113 113 111 110 107 104 101 99 99 99 99 101 109 116 114 96 80 107 123 122 117 114 125 126 124 116 110 116 121 130 142 162 187 208 224 233 241 248 255 262 265 266 269
101 104 107 111 109 109 110 107 101 98 97 94 90 86 85 94 109 114 113 117 120 113 109 116 117 112 106 110 115 124 138 169 195 209 216 233 247 254 259 261 263 267 269 270
92 95 94 93 101 110 115 113 110 111 111 107 99 93 92 95 101 105 105 105 107 106 101 98 104 102 102 109 117 133 159 213 276 259 243 253 258 262 266 267 267 267 267 267
85 88 89 87 84 91 100 105 109 112 114 115 111 104 102 102 102 102 102 102 101 99 98 97 98 101 107 114 126 165 218 237 246 252 257 259 262 264 266 267 268 267 267 268